Theta_e
325 319 314 314 312 313 310 304 301 296 293 289 287 291 295 294 293 294 295 295 297 297 297 300 297 299 299 298 297 299 299 297 295 296 298 307 316 326 328 330 332 341 345 346 346 348 348 347 350 351 350 350 350 350 350 350 351 350 350 350 350 349 349 349 349 349 349 350 349 348 347 347 346 346 346 345 345 343 341 340 340 341 340 340 340 341 341 341 342 342 342 342 342 342 342 342 343
318 315 313 312 315 316 310 298 292 289 288 288 289 288 291 292 293 293 295 295 298 303 302 306 306 305 306 306 305 305 303 306 300 315 310 309 320 326 330 334 336 342 345 347 347 346 348 351 348 351 350 350 350 349 350 350 350 350 349 349 348 348 349 349 349 348 349 348 347 347 346 345 346 346 345 344 344 342 341 340 339 340 340 340 340 340 340 340 340 341 341 342 341 340 341 341 342
316 315 316 314 312 308 303 300 300 284 287 288 289 290 291 295 293 294 292 294 299 303 295 300 300 299 301 301 302 300 303 309 312 310 319 318 326 327 329 334 340 345 346 346 344 344 347 348 346 350 351 350 350 349 349 350 349 349 349 348 348 348 348 348 348 348 348 347 347 346 345 345 346 344 344 343 342 342 340 339 339 339 339 339 340 340 339 339 339 339 340 340 340 340 340 341 342
315 314 313 311 311 303 296 291 288 288 286 285 287 291 290 293 293 293 295 293 301 295 295 301 303 302 301 300 301 303 303 309 314 316 317 323 324 328 328 332 341 346 347 345 340 342 346 344 346 350 351 350 350 349 349 349 349 348 349 348 348 348 348 347 348 347 347 347 346 346 345 346 345 344 343 343 341 340 339 338 338 338 339 339 339 339 339 339 338 339 339 339 339 339 339 341 342
314 316 312 309 306 303 294 288 287 287 289 285 290 290 292 292 296 293 298 296 294 293 294 299 302 302 302 302 301 301 305 306 307 311 316 318 320 324 328 333 343 345 346 346 343 344 345 340 343 348 350 350 350 349 349 349 349 349 349 349 348 347 347 347 347 347 347 347 346 346 346 346 345 344 343 342 341 339 338 337 337 337 338 339 339 339 338 338 338 337 339 339 340 341 341 342 342
310 308 308 308 305 303 295 292 292 292 290 288 289 294 291 293 295 293 295 293 294 293 295 297 302 302 304 308 307 308 309 306 308 314 316 324 325 327 328 331 344 344 347 347 346 342 345 339 342 347 349 349 349 348 348 348 349 348 348 347 347 347 347 346 346 346 347 347 346 345 346 345 345 344 343 341 339 338 337 336 335 336 337 338 338 338 338 337 336 337 338 338 339 340 341 341 341
315 305 304 305 299 299 294 287 289 287 295 290 294 292 294 292 293 293 296 297 296 298 293 302 301 301 301 301 300 311 315 318 318 322 321 328 327 326 328 335 344 343 346 347 347 346 344 339 343 347 347 348 349 349 349 348 348 348 348 346 346 346 346 346 346 346 347 346 345 345 345 345 344 343 342 341 339 337 335 335 335 334 336 337 337 338 338 337 337 338 341 341 342 342 341 340 340
311 312 302 298 292 292 289 286 290 287 294 289 292 292 292 292 291 294 293 296 297 298 302 298 293 299 300 303 300 308 307 313 322 320 320 322 327 327 329 342 342 344 346 347 347 345 343 339 339 345 347 348 349 349 349 348 348 348 348 346 346 346 346 346 346 346 346 346 345 345 344 344 344 342 341 340 338 336 334 334 334 333 336 337 337 337 337 337 336 338 340 341 340 339 338 338 338
303 303 297 298 292 288 286 291 291 288 289 289 290 290 300 291 291 292 293 292 296 294 301 301 296 299 298 302 301 306 305 310 306 306 317 328 329 329 332 343 342 343 346 347 347 347 345 337 341 341 344 348 349 349 349 348 348 347 347 346 346 346 346 346 346 346 345 345 345 345 344 344 343 341 341 339 337 335 333 333 333 333 336 337 336 336 336 336 335 336 337 338 338 336 335 336 336
301 303 298 294 290 290 284 289 291 292 291 291 291 294 290 290 291 293 294 295 296 296 301 294 295 299 299 302 301 303 307 305 303 319 325 330 332 331 335 342 344 344 345 345 346 347 343 336 335 340 343 346 348 348 348 349 348 348 347 347 346 347 347 346 346 346 346 345 344 343 344 344 343 341 340 339 336 334 332 332 332 334 336 336 336 335 335 335 335 334 335 335 334 332 332 332 332
298 295 295 293 286 286 289 289 285 288 292 290 290 290 291 290 291 291 292 296 292 298 298 296 300 298 300 300 300 305 302 302 321 324 321 329 332 335 338 341 344 344 345 345 346 346 345 339 336 337 339 341 344 347 347 348 349 348 348 348 348 347 347 346 346 346 345 344 344 343 343 343 342 341 340 339 336 332 331 330 331 333 334 334 335 334 334 334 334 334 334 331 329 327 327 327 327
299 293 293 286 286 288 286 289 289 288 290 289 295 293 292 292 292 294 294 296 295 295 297 297 301 298 299 293 301 303 301 309 310 315 321 330 331 333 336 337 341 343 345 345 345 346 347 345 342 338 334 335 339 342 344 346 346 348 347 348 348 347 347 346 346 346 345 344 343 343 342 342 342 341 339 338 334 331 330 329 330 331 332 332 333 333 333 333 332 332 329 326 325 325 325 324 324
295 291 290 290 288 288 286 287 290 294 288 289 294 295 290 293 295 293 292 293 292 296 296 295 296 298 298 296 300 297 304 307 311 317 325 329 330 328 328 330 333 335 338 344 345 345 345 345 343 340 336 331 334 336 337 340 344 346 347 347 347 346 346 346 346 346 345 344 343 342 342 342 341 340 338 336 333 331 330 328 328 328 329 329 330 331 331 330 329 328 325 324 323 323 322 322 322
295 293 293 291 284 285 286 288 285 291 290 292 291 292 291 294 294 291 293 295 293 294 297 296 298 297 299 296 298 298 298 305 311 321 320 324 326 325 326 326 328 326 327 333 332 334 335 337 337 341 341 340 342 336 333 335 339 343 344 343 343 344 344 345 344 344 344 343 342 340 339 338 338 339 338 335 333 332 331 329 327 326 326 327 328 330 330 329 328 326 324 322 322 321 321 321 321
297 291 288 285 285 288 286 290 290 287 291 290 295 292 292 295 290 289 295 294 295 293 297 299 298 297 296 297 295 295 299 304 318 317 317 323 322 322 322 323 323 323 322 324 324 326 327 328 330 333 334 341 342 342 343 337 332 337 339 339 340 342 342 341 340 341 339 339 338 336 335 333 332 332 332 332 333 331 330 328 327 325 325 325 326 326 326 326 325 324 323 323 322 321 321 321 321
294 292 288 290 288 286 289 288 284 287 291 290 293 290 294 294 291 294 294 296 296 298 296 300 300 297 297 296 299 298 296 309 317 313 320 324 322 321 321 322 321 321 320 320 321 322 323 323 325 326 329 331 335 342 342 339 332 332 336 337 337 339 338 338 337 336 332 331 330 330 329 332 329 330 325 330 327 329 327 327 328 325 324 324 323 323 322 322 321 321 321 322 322 321 321 320 318
293 292 290 285 290 287 289 289 288 291 290 290 290 292 295 294 294 294 294 294 298 297 295 297 298 298 295 295 298 298 301 309 314 315 322 323 325 324 321 321 321 320 319 318 319 319 320 320 322 325 324 326 329 333 341 339 338 328 330 331 330 333 335 335 333 326 324 323 324 324 326 336 335 335 334 332 323 328 321 323 326 326 325 325 323 322 322 321 321 320 320 319 317 315 313 313 313
291 290 286 288 284 287 289 291 290 290 291 293 292 292 293 293 295 298 296 296 293 295 297 296 297 298 298 297 299 301 302 315 313 319 320 322 323 322 323 319 323 321 317 318 316 317 318 319 320 322 325 325 326 327 339 340 339 334 339 339 338 334 330 328 332 336 329 333 324 331 336 334 334 333 332 328 329 326 325 321 323 325 325 326 324 323 323 322 321 321 320 318 315 312 308 306 306
288 284 285 289 285 290 292 290 291 293 296 292 292 289 293 294 295 297 295 295 293 297 297 295 298 297 299 302 302 308 314 315 314 316 320 321 322 321 322 318 317 316 317 316 316 315 316 317 319 321 323 323 326 326 331 341 338 339 339 338 335 331 333 335 336 333 334 333 336 337 334 335 335 333 332 329 327 321 325 321 323 325 327 326 324 324 323 322 321 320 318 315 313 309 307 306 305
289 289 290 282 287 290 289 289 292 291 291 292 292 291 292 294 294 295 297 292 292 295 294 295 296 298 298 301 303 311 315 316 311 313 317 320 321 323 319 317 316 316 315 314 314 314 315 316 317 320 321 322 323 325 324 340 339 339 340 338 337 336 336 337 336 334 334 335 336 336 335 336 335 333 325 322 322 326 323 319 318 318 319 319 318 320 320 319 319 317 314 312 309 307 306 305 303
291 288 285 290 287 293 293 288 289 289 291 291 291 290 293 294 292 295 292 294 293 294 293 298 298 297 298 300 302 310 313 315 310 309 312 315 314 313 317 315 315 313 312 311 313 312 313 315 316 318 319 322 322 323 323 331 339 339 339 339 337 336 335 336 335 335 334 335 336 336 336 334 334 332 331 329 328 327 325 323 320 319 319 318 315 316 314 313 312 311 310 308 307 306 305 303 302
288 291 289 289 286 293 293 288 288 289 288 290 289 294 295 293 294 291 293 294 295 295 296 295 297 297 298 301 301 308 312 313 312 307 310 311 313 315 310 309 308 308 309 313 312 312 313 314 316 316 318 320 321 322 322 322 328 339 339 339 337 335 334 334 335 334 333 335 336 336 335 334 333 331 331 330 328 327 325 322 320 319 319 317 316 315 314 313 311 310 308 307 305 304 303 302 301
293 290 287 287 287 293 290 289 288 288 289 290 291 294 293 293 294 289 292 296 295 292 293 292 293 295 298 302 302 307 310 311 311 309 307 307 307 308 306 307 309 311 309 311 310 311 311 314 314 315 317 319 321 322 322 325 330 337 340 338 337 334 335 334 333 334 334 334 335 334 334 333 332 331 331 330 328 328 325 321 319 319 318 316 316 315 314 313 311 309 307 305 304 303 302 302 301
288 292 289 292 287 293 290 291 288 287 290 290 291 292 294 291 295 291 290 294 294 292 291 293 294 292 299 301 302 307 310 310 311 309 305 307 307 307 304 306 305 305 308 309 310 311 312 313 313 313 316 318 320 322 326 329 330 334 337 336 337 333 334 333 333 333 333 333 333 334 334 334 331 330 330 329 328 328 325 322 321 319 319 318 317 316 314 312 309 307 306 304 303 302 301 301 300
291 292 290 291 288 290 288 287 286 287 289 289 290 293 294 291 293 290 293 295 294 295 295 296 295 297 299 300 301 304 307 309 310 306 300 302 302 303 301 301 302 305 309 308 309 311 311 312 313 314 317 318 320 321 327 330 330 331 332 333 332 330 335 334 333 332 332 331 333 334 334 333 332 332 330 329 328 326 325 322 321 320 319 318 316 315 313 310 308 306 304 303 302 301 301 300 299
292 293 289 290 292 290 289 288 287 288 291 290 293 292 291 290 290 292 297 295 290 294 296 296 297 298 298 300 301 302 304 306 307 306 305 302 301 303 303 303 303 306 307 307 309 310 311 311 312 313 317 317 319 322 328 328 328 329 328 328 326 325 331 331 331 330 329 328 330 333 334 334 333 332 331 329 327 325 325 323 321 321 320 318 316 313 312 309 306 304 303 302 301 300 298 298 297
291 290 290 292 292 291 291 293 291 289 292 291 293 291 292 291 292 294 292 293 294 296 296 295 297 298 298 299 299 300 302 303 305 304 301 301 301 303 304 302 303 306 305 307 308 309 311 311 313 315 317 317 317 320 326 325 325 325 324 323 324 325 323 326 327 326 325 325 324 328 332 332 331 331 330 328 326 325 324 323 321 319 318 317 315 312 310 308 305 303 302 301 299 298 296 296 295
290 290 290 291 288 291 290 291 292 292 295 288 294 292 290 292 292 295 295 293 294 295 295 295 295 297 298 298 298 299 299 301 301 301 305 301 303 302 303 304 304 303 304 306 306 308 310 311 312 314 317 318 317 320 324 323 323 322 320 320 319 319 321 320 322 323 320 322 323 324 327 330 329 328 327 326 324 323 322 320 318 317 314 313 312 311 309 307 305 303 302 300 298 297 295 295 295
291 291 295 291 287 294 290 293 290 291 295 290 291 293 291 290 291 297 291 293 294 294 294 294 295 295 295 296 297 298 300 300 299 300 303 305 303 302 304 303 304 305 304 306 306 308 310 311 312 313 315 318 319 321 321 321 320 319 318 317 316 316 317 317 316 318 320 320 321 323 325 327 326 326 325 322 318 319 319 318 316 313 312 311 310 308 307 306 303 301 300 298 296 295 295 294 295
292 290 290 291 287 288 291 290 289 292 294 287 292 289 289 291 295 294 292 293 293 294 294 294 294 294 294 294 296 298 298 298 298 300 302 301 301 301 303 303 302 305 305 307 308 309 310 312 312 313 314 313 314 315 316 317 317 316 315 315 315 315 314 314 313 314 317 318 318 319 319 322 324 324 323 320 319 318 316 315 312 311 311 309 309 308 307 305 303 300 298 296 296 294 293 293 292
293 290 286 285 286 286 289 289 289 293 291 289 292 289 289 289 290 289 289 291 294 295 295 294 293 293 294 294 295 296 298 299 300 300 299 299 299 299 302 302 302 302 304 306 309 309 309 310 312 311 312 312 312 312 312 311 312 313 314 313 312 312 312 313 313 313 315 315 316 316 317 317 320 321 320 320 319 317 314 312 310 309 309 309 307 306 305 304 303 300 297 295 295 294 294 293 291
284 288 283 280 286 283 286 290 289 293 291 289 293 289 292 293 295 291 288 291 291 294 294 293 293 293 293 293 294 295 297 298 298 298 299 298 297 298 299 302 302 302 305 307 308 308 308 310 311 310 310 310 309 309 309 309 309 309 310 309 310 310 310 310 310 310 312 314 315 315 315 316 316 316 316 316 314 314 312 309 308 308 308 307 307 306 305 303 302 299 297 296 293 293 292 291 291
281 286 283 286 284 282 288 290 286 288 290 292 292 291 287 291 291 289 290 291 290 292 292 292 292 292 293 294 294 295 296 297 297 297 297 297 297 298 299 302 303 304 306 307 307 308 308 308 310 309 308 308 307 307 307 306 307 307 307 307 307 307 308 308 309 309 309 310 313 313 314 315 315 313 313 311 309 307 307 306 306 306 306 306 305 305 303 302 299 297 296 295 294 292 291 291 290
283 283 285 280 285 284 286 287 290 288 291 290 291 289 291 292 291 288 290 291 290 291 293 293 293 293 293 294 294 295 295 296 297 299 297 297 297 297 300 302 304 305 307 307 308 308 308 308 308 307 306 306 306 305 305 304 304 304 304 304 303 302 303 304 305 307 306 307 308 309 310 310 311 311 311 309 307 305 305 303 302 304 305 304 303 303 302 302 299 297 295 294 293 291 290 289 288
282 286 285 286 283 283 285 286 290 289 288 289 287 288 290 293 294 294 291 290 290 292 293 294 293 293 293 293 293 294 295 296 297 299 299 297 297 298 300 302 303 306 307 307 308 307 307 306 306 305 305 305 304 303 303 302 302 302 302 301 301 301 300 300 303 303 303 305 306 305 305 305 306 306 306 305 303 302 301 300 301 302 303 303 302 302 301 299 297 295 294 292 293 292 290 289 288
283 284 282 281 286 284 285 287 286 289 288 287 287 289 291 292 293 295 292 289 291 292 292 292 292 293 292 293 293 294 295 295 297 298 298 297 298 298 300 302 304 306 306 306 306 306 306 305 305 305 304 303 302 302 302 302 302 301 300 301 299 299 298 299 299 301 301 303 303 304 303 302 302 303 303 302 301 300 299 299 298 300 301 301 300 299 298 297 295 293 292 291 289 289 290 289 289
284 282 282 282 284 285 285 285 286 286 288 288 290 289 289 291 292 293 294 289 289 290 291 292 293 294 293 293 293 294 294 296 297 297 296 297 297 299 300 302 304 306 306 305 305 305 305 305 304 303 302 301 301 301 301 302 301 300 301 299 297 298 295 296 298 299 299 298 299 300 301 301 300 299 300 300 298 298 298 297 298 298 300 301 300 299 298 295 294 293 291 291 289 288 288 289 290
286 283 286 285 284 287 287 290 287 286 289 285 284 286 287 289 291 293 293 289 291 291 292 292 293 294 294 294 294 294 295 295 293 295 295 295 297 298 300 301 304 304 305 305 305 305 305 305 305 303 301 301 301 302 302 303 302 302 300 297 297 298 298 296 295 296 297 297 297 298 298 298 298 298 297 298 297 297 296 296 297 298 299 299 298 297 296 294 293 292 291 289 291 289 288 290 289
284 287 284 286 285 285 287 286 286 286 288 287 286 287 290 290 291 293 293 293 294 293 294 296 296 296 295 294 294 295 294 295 293 295 294 295 296 298 300 301 303 305 304 305 305 305 305 304 305 302 301 301 301 301 301 299 299 298 298 297 296 294 295 295 295 295 295 295 295 296 296 296 296 296 297 296 296 296 296 296 296 297 296 296 295 295 294 293 292 292 292 290 288 289 288 288 289
284 283 285 286 283 286 284 284 286 288 288 285 283 286 289 289 291 292 294 294 293 293 293 294 295 295 296 296 296 295 294 294 293 294 294 294 295 297 299 301 303 304 303 304 305 305 305 304 304 302 301 301 300 299 297 296 295 295 294 294 294 295 294 294 294 295 295 295 293 293 294 294 295 294 295 295 295 295 295 295 294 295 295 296 295 294 293 293 293 293 293 292 291 288 289 288 287
284 286 284 284 285 284 286 285 285 285 286 284 286 287 289 290 291 292 292 287 290 294 294 293 293 294 295 296 295 295 295 295 294 293 293 294 294 296 298 301 303 303 303 304 304 305 304 304 303 302 302 300 298 296 294 294 293 293 292 292 293 293 295 295 294 292 292 292 292 291 291 292 293 293 294 293 293 293 293 294 294 294 295 295 295 294 293 293 293 293 293 292 292 290 287 286 286
281 283 288 288 286 286 284 284 287 285 282 283 284 283 281 281 286 289 291 289 291 291 291 294 295 295 294 294 294 295 295 295 295 294 294 294 295 296 299 301 302 303 303 304 304 304 304 303 302 302 301 298 295 294 294 293 293 293 293 294 294 294 292 294 295 295 291 291 289 289 290 291 292 292 292 292 291 292 292 293 293 293 293 294 295 294 293 292 293 292 293 294 293 293 290 287 285
284 284 285 289 287 286 286 285 287 280 280 286 284 284 281 284 289 288 287 286 290 292 291 293 294 294 294 294 295 294 294 293 293 294 294 294 294 296 298 301 302 302 303 304 304 304 304 303 302 301 299 296 295 294 294 294 295 297 298 299 300 299 298 294 291 292 290 288 289 288 288 289 290 291 290 290 291 291 291 291 292 292 292 292 292 291 291 291 292 292 291 292 292 290 290 288 286
282 284 283 285 286 286 285 286 286 283 282 284 284 283 283 285 287 290 289 290 292 292 294 296 297 296 295 295 294 294 293 293 293 293 293 294 294 296 297 301 302 302 303 303 303 303 304 303 302 300 298 295 295 294 294 295 295 297 297 297 298 298 298 293 289 288 288 288 288 287 288 288 289 289 289 289 289 289 289 289 290 290 290 290 290 291 290 289 289 289 289 291 290 290 291 288 286
283 285 283 284 286 284 283 285 282 283 282 283 283 285 284 282 281 285 287 289 289 292 294 295 296 296 295 294 294 294 293 292 293 293 293 293 294 295 298 300 302 303 302 302 302 302 302 301 300 299 295 294 294 294 294 295 296 297 297 296 293 291 291 289 288 288 287 287 287 287 287 287 287 288 288 288 288 288 288 288 289 289 289 288 289 289 288 288 289 288 287 287 288 288 289 289 287
286 284 284 283 283 282 282 281 284 281 279 282 282 285 279 285 283 287 284 287 288 291 294 295 296 296 294 293 292 291 290 290 291 292 293 293 294 296 298 301 302 302 302 302 301 301 301 300 298 296 295 294 294 294 294 295 296 296 295 293 291 289 289 287 287 286 286 287 287 286 287 286 286 286 286 287 287 287 287 287 288 288 288 287 287 287 287 287 287 288 288 288 287 287 286 287 287
286 285 287 285 281 281 280 280 279 279 276 283 283 285 284 282 284 287 287 289 290 293 293 294 295 294 293 290 290 289 289 289 290 291 292 293 294 296 299 300 301 302 301 300 299 299 299 298 297 296 295 294 294 294 295 295 295 295 293 292 292 291 290 287 286 285 285 286 286 286 286 286 286 285 285 285 286 286 286 286 286 286 286 286 286 286 286 286 286 286 285 286 286 286 285 286 285
287 286 283 286 285 279 279 272 276 275 277 280 281 282 284 280 280 284 288 287 286 291 292 294 294 294 293 289 288 288 288 289 289 290 290 292 293 295 298 299 300 301 299 298 298 298 297 297 297 297 294 294 294 294 294 294 294 294 293 291 291 291 288 288 289 286 285 286 286 286 285 285 285 285 285 284 284 285 285 285 285 285 285 285 284 285 284 284 284 284 285 285 284 284 285 284 284
286 285 287 280 275 272 273 273 276 273 278 279 279 282 283 283 287 285 286 289 291 289 292 294 294 294 293 290 289 287 287 288 289 290 290 291 293 295 297 299 299 299 297 297 297 297 297 296 296 296 294 293 293 293 293 293 293 292 292 291 290 290 290 292 292 290 287 287 286 285 284 284 284 284 284 284 284 284 284 284 284 284 284 284 284 284 283 284 284 284 284 284 284 284 284 284 284
285 287 283 278 272 272 268 265 263 269 276 279 281 282 281 283 286 292 294 295 295 292 291 293 293 294 295 292 289 287 287 288 289 290 290 291 293 295 297 298 299 298 298 297 296 296 296 296 296 296 294 293 293 293 293 291 292 292 291 290 290 289 289 290 290 289 288 287 286 285 285 285 284 285 284 284 283 284 284 284 284 283 283 283 283 283 283 283 284 283 283 283 283 282 283 283 282
288 284 288 284 277 270 267 266 274 278 276 277 278 277 277 278 285 289 291 292 288 290 292 292 291 291 291 289 286 286 286 287 288 289 290 291 292 295 297 298 299 298 297 296 295 296 296 295 295 295 294 292 292 292 292 291 291 291 290 290 289 289 289 289 290 289 288 287 286 286 286 285 285 284 284 283 283 283 283 283 283 283 283 283 283 283 283 283 283 282 282 282 281 282 282 281 281
285 284 284 279 283 278 278 272 269 269 271 273 274 280 281 285 286 287 287 286 287 287 289 290 292 293 290 289 289 288 288 288 288 289 290 290 292 294 296 298 298 297 297 296 296 295 295 295 295 296 294 292 292 291 291 291 290 290 289 289 288 289 288 288 288 287 287 287 286 286 285 285 284 284 283 283 283 283 283 283 283 282 282 282 282 282 282 282 282 282 281 281 280 281 281 281 280
283 286 283 285 284 282 273 272 271 272 270 278 273 280 283 285 289 291 294 291 290 288 288 288 292 294 289 292 293 289 288 288 288 289 290 290 291 293 296 297 298 297 296 295 295 295 295 295 294 294 293 292 291 291 290 290 290 289 289 288 288 287 287 286 286 286 285 285 285 285 284 283 283 283 283 282 282 282 282 282 282 282 282 282 282 282 282 282 282 281 281 280 280 280 281 280 280
285 281 285 285 284 282 281 276 271 271 273 276 275 280 283 280 284 285 287 287 291 290 291 292 291 288 289 293 292 290 289 288 289 289 289 290 291 292 295 297 298 297 297 296 296 296 296 295 294 294 292 291 290 290 289 289 288 288 288 287 287 286 286 286 286 285 284 284 283 283 283 283 283 283 283 282 282 282 282 282 282 281 281 281 281 281 281 281 281 281 280 280 280 280 279 279 279
284 282 286 287 281 279 280 275 274 270 270 274 276 277 279 283 287 286 286 286 289 290 292 292 292 292 291 292 291 289 288 287 287 288 288 289 290 291 294 296 297 297 297 296 295 295 295 294 294 294 292 291 290 290 289 289 289 288 288 287 286 285 285 285 285 285 284 283 283 283 283 282 282 282 282 281 281 281 281 281 281 281 281 281 281 280 280 280 280 280 280 279 279 280 279 279 279
286 288 287 286 283 277 277 281 274 277 270 267 277 274 284 286 286 287 291 289 289 291 289 290 292 293 291 291 290 289 289 288 288 288 288 289 290 291 293 295 295 296 296 296 294 294 294 293 293 293 292 291 290 289 288 287 288 287 287 286 285 285 284 284 284 284 283 283 283 282 282 281 282 282 281 281 281 281 281 280 280 280 280 280 280 280 280 280 280 280 279 279 279 279 279 278 278
284 284 283 285 281 283 281 279 277 278 266 267 270 279 285 288 287 288 291 292 292 291 291 292 292 291 289 289 289 289 288 288 288 288 288 289 289 290 291 293 294 294 295 295 294 293 293 293 292 292 291 289 289 289 288 287 287 286 286 285 284 284 283 283 283 283 283 282 282 282 282 282 281 281 281 281 281 280 280 280 280 280 280 279 279 279 279 279 279 278 279 278 278 279 278 278 277
289 288 286 288 284 280 277 279 280 271 276 278 271 280 287 287 286 291 290 290 292 291 291 292 291 289 288 288 288 288 289 288 288 288 288 288 289 289 290 291 292 292 292 292 293 293 293 292 292 291 291 289 288 287 287 286 286 286 285 284 284 283 283 283 282 282 282 282 282 281 281 281 281 281 281 280 280 280 280 280 280 279 279 279 279 279 279 279 278 278 278 278 278 278 277 277 277
Wind_Speed
4 4 3 2 3 2 3 8 1 2 4 1 1 1 1 1 1 3 3 2 1 2 2 2 2 2 2 2 4 5 2 4 3 3 1 1 2 2 2 2 4 6 8 6 4 2 2 0 3 7 9 9 9 9 10 10 10 10 11 12 12 12 12 13 13 13 14 14 15 16 16 16 16 16 16 16 17 17 17 17 17 18 18 17 17 17 18 17 18 18 17 18 17 17 17 17 17
3 4 1 1 1 1 0 1 5 3 6 3 2 1 2 2 1 4 3 3 1 1 2 5 6 6 5 6 7 3 3 2 5 1 2 2 4 0 3 2 4 9 8 6 6 4 2 2 5 8 10 10 9 10 10 9 10 10 11 11 11 12 12 12 12 13 13 15 15 16 16 16 16 16 16 16 16 17 17 17 17 17 17 18 17 17 17 17 17 18 17 17 18 18 17 17 18
3 5 1 3 4 5 3 4 1 1 4 1 2 5 2 1 2 2 5 2 4 5 2 2 3 3 3 1 2 2 1 2 2 1 1 3 4 2 5 2 4 8 8 5 4 3 1 2 6 8 10 10 9 10 10 10 10 10 10 10 10 11 11 11 12 13 13 15 15 15 16 16 15 15 15 16 16 17 17 17 17 17 17 17 17 17 17 17 17 18 17 18 19 18 18 18 18
3 6 2 3 1 4 2 5 4 5 2 3 1 3 3 3 4 4 2 3 5 2 2 1 1 1 1 3 1 1 3 1 2 1 2 2 1 2 4 4 4 5 7 5 4 2 2 1 6 7 9 10 9 9 9 9 10 10 9 10 10 10 10 11 11 12 13 15 15 15 15 16 15 15 15 16 16 16 16 16 17 17 17 17 17 17 17 17 18 17 17 19 18 17 17 18 18
4 3 3 4 5 2 4 1 4 3 1 6 3 3 5 5 4 4 1 0 4 1 2 0 2 2 0 3 2 2 3 1 2 3 1 3 1 2 4 4 4 7 7 7 5 5 3 2 1 5 8 10 10 10 8 10 10 10 9 8 9 10 10 11 11 11 13 14 14 15 15 15 15 15 15 15 15 16 16 16 16 17 17 17 17 17 17 17 17 18 18 18 18 18 18 18 19
5 3 5 3 2 3 5 2 3 1 2 6 2 2 6 7 6 6 2 2 3 3 4 2 0 2 1 1 2 1 3 2 2 3 2 2 1 3 5 4 5 7 6 7 7 6 4 3 0 4 8 9 9 9 9 9 10 10 9 9 9 10 10 10 11 11 12 14 14 15 15 15 14 15 15 15 15 15 15 16 16 17 17 17 17 17 17 17 18 18 18 18 18 18 19 20 20
1 5 6 4 4 4 3 4 3 2 0 5 1 1 7 7 4 5 1 0 1 3 3 0 2 1 3 1 2 3 2 2 2 2 5 3 6 4 4 4 8 7 6 7 7 5 8 5 2 4 6 7 9 9 9 9 10 9 9 10 10 10 9 9 10 11 13 13 14 15 15 14 14 14 14 14 14 15 15 15 16 16 16 16 17 17 17 18 18 18 19 19 19 20 20 21 19
2 1 3 4 2 4 3 2 2 3 1 5 1 3 3 7 4 3 3 2 1 2 1 1 1 1 1 1 2 1 2 3 2 2 4 4 5 3 5 4 7 8 6 7 6 4 7 11 5 2 5 9 8 9 9 9 9 8 8 9 9 9 9 10 10 11 12 13 15 15 14 14 13 13 14 14 14 14 15 15 16 16 16 16 17 17 17 17 18 18 18 19 20 20 19 19 18
6 8 1 6 4 4 3 2 1 4 6 2 5 6 3 5 6 4 3 2 1 1 1 1 0 1 1 1 1 1 2 2 3 4 3 4 3 2 4 7 7 7 6 6 5 4 4 8 7 1 2 9 9 10 10 10 10 10 10 10 9 9 9 10 10 10 12 12 14 14 14 14 13 13 14 14 14 14 15 15 15 16 16 16 17 17 17 17 17 17 18 19 18 18 17 17 17
3 2 0 3 4 3 2 1 2 3 2 2 2 1 4 4 4 0 3 0 2 1 2 1 1 0 1 2 1 2 3 2 3 2 1 1 2 2 5 8 6 8 8 7 6 4 6 10 7 4 2 4 7 10 10 10 10 10 10 11 10 9 9 10 10 11 12 12 13 14 14 13 13 13 14 14 14 15 15 15 15 16 16 16 16 17 18 18 17 18 17 18 17 17 17 17 18
1 6 3 4 5 3 2 3 5 4 1 5 6 8 5 6 5 1 1 0 1 3 1 2 0 2 1 2 3 1 4 2 5 3 2 1 2 4 4 4 5 8 7 8 6 5 5 8 8 7 3 3 4 6 7 8 8 9 8 9 9 9 9 9 10 11 12 12 13 13 13 13 13 13 13 14 14 15 15 15 15 16 16 17 17 17 17 17 18 18 17 18 18 18 18 18 19
1 2 2 4 3 5 4 5 2 4 7 3 2 0 4 7 3 2 1 4 2 1 2 4 0 6 1 4 2 1 3 4 3 1 1 1 4 4 4 3 3 5 5 7 6 5 4 5 5 4 3 5 1 4 5 7 7 7 7 7 8 9 9 10 10 11 11 11 13 13 12 13 13 13 13 14 14 14 15 15 16 16 16 17 17 17 17 17 18 18 18 18 19 19 19 19 19
4 1 7 6 1 0 2 3 2 2 3 4 4 0 4 5 4 5 5 2 1 2 3 5 2 0 1 2 2 4 2 3 2 1 0 4 4 4 4 5 5 6 5 4 4 5 6 3 5 5 6 7 2 3 4 4 7 7 7 7 7 8 9 9 9 10 10 10 12 12 11 11 11 12 14 14 14 15 15 15 16 17 17 17 17 17 18 18 18 19 19 20 20 20 21 20 20
5 6 5 2 1 4 5 2 2 3 4 2 3 1 4 2 2 5 8 4 3 4 1 1 2 2 1 2 2 1 3 3 1 2 1 5 5 5 6 5 7 7 6 6 5 5 5 4 5 4 5 5 3 2 4 5 3 7 7 7 7 8 9 9 9 9 9 9 10 10 10 10 10 11 12 13 14 14 14 15 16 17 17 17 17 18 18 19 19 19 20 20 21 21 21 21 20
3 2 7 6 2 1 2 4 9 6 5 3 2 5 3 2 2 4 6 4 5 2 2 0 1 2 3 5 3 3 3 3 4 2 2 6 6 5 5 4 6 5 4 6 5 5 4 3 3 4 4 1 6 4 3 4 4 4 6 8 7 8 9 10 9 9 9 9 10 10 11 11 11 11 12 11 11 13 12 13 15 16 17 18 18 18 18 19 19 19 19 20 20 21 20 20 20
6 6 5 4 2 4 3 2 1 4 5 6 1 2 3 1 3 4 4 1 1 1 0 3 0 2 1 3 1 2 4 2 2 2 5 9 6 4 5 4 5 5 4 4 5 4 3 4 3 4 3 3 2 4 5 4 3 4 5 7 7 8 9 10 10 9 10 11 11 11 11 10 10 10 11 10 12 13 11 11 13 15 17 17 18 18 19 19 20 20 20 20 19 19 19 19 19
2 4 3 4 2 3 3 3 6 3 4 5 3 2 4 2 1 1 1 2 4 1 2 1 2 1 5 4 1 4 4 3 1 5 7 7 5 4 3 3 4 4 3 5 4 3 4 4 3 3 2 3 4 3 5 5 2 3 5 7 7 7 9 9 10 10 10 10 10 11 10 7 6 6 8 6 9 11 11 12 13 14 16 17 17 18 19 19 20 20 20 20 19 19 18 19 19
1 2 6 1 3 4 6 8 10 2 4 4 4 4 5 2 1 1 1 4 3 1 1 4 3 7 5 4 2 4 4 3 3 7 6 6 5 4 5 3 4 5 2 3 4 3 3 3 3 3 3 4 3 2 1 6 5 4 4 5 5 5 6 7 8 7 7 7 10 9 7 5 5 5 6 7 6 10 10 12 13 14 16 16 16 17 18 19 19 19 19 19 19 18 15 9 10
5 2 3 6 5 5 7 5 6 2 1 4 3 1 2 3 6 3 2 1 2 1 2 1 4 7 4 4 3 2 5 3 5 6 9 10 7 7 6 4 3 4 3 2 2 2 2 2 2 3 3 3 5 4 3 5 7 4 5 5 5 4 4 6 4 6 7 8 8 7 6 5 6 5 6 7 6 11 11 12 14 14 13 14 15 17 18 18 19 19 20 18 17 15 9 8 8
1 3 1 2 9 2 6 5 7 2 4 5 4 2 2 1 2 1 2 1 1 5 4 2 4 8 8 4 0 5 6 6 4 6 9 10 9 8 7 7 4 3 2 1 1 0 1 1 1 2 3 3 4 2 3 3 5 5 4 6 5 4 5 4 4 5 4 8 7 7 6 5 7 7 7 13 11 8 8 11 14 15 14 13 15 12 14 16 19 19 18 16 11 7 8 8 8
1 2 2 2 5 1 2 7 4 5 1 5 4 1 1 1 3 2 4 2 4 7 9 8 10 12 9 8 5 6 8 7 6 5 7 9 6 3 4 4 3 2 1 1 2 1 0 1 1 1 2 2 2 1 3 0 3 6 6 6 6 5 6 5 5 6 6 6 8 7 7 7 7 7 7 4 7 7 7 6 6 6 7 8 12 9 7 7 8 8 8 9 8 8 8 8 8
4 1 1 1 3 1 1 6 2 4 1 7 3 6 4 1 1 2 8 6 8 8 6 11 9 6 8 11 8 7 9 9 9 7 9 9 10 9 3 2 1 2 1 2 1 1 2 3 2 2 2 2 1 1 2 1 3 4 2 6 7 5 5 6 6 6 6 4 6 6 7 7 7 7 7 5 6 7 7 6 6 6 7 7 6 8 7 7 7 7 8 9 8 8 9 8 9
2 1 1 3 2 1 1 2 3 4 3 5 5 3 3 2 1 2 5 10 5 4 1 5 6 5 5 3 8 8 11 12 11 11 8 9 8 7 5 2 3 4 1 1 1 2 4 5 5 3 2 2 2 2 1 1 2 3 3 4 6 8 6 3 5 7 7 5 5 6 7 7 7 7 8 6 6 6 6 6 7 6 8 7 5 7 7 6 7 7 8 9 8 9 10 9 10
5 3 0 1 3 1 1 0 1 1 8 4 2 1 1 3 4 1 3 10 7 2 4 5 6 5 4 8 10 12 13 14 13 9 6 7 8 8 6 5 2 1 1 1 1 1 2 2 2 2 1 2 2 2 2 3 3 3 2 2 4 6 7 6 3 5 8 7 7 7 6 7 7 7 8 7 7 6 6 6 5 7 7 7 5 7 8 7 7 8 9 9 9 9 10 9 9
2 1 2 1 0 1 2 1 2 1 1 1 2 3 0 4 1 2 9 11 8 3 1 0 2 4 5 7 10 9 9 8 9 8 4 3 4 2 2 2 2 0 3 1 2 3 4 4 4 3 2 2 3 3 3 1 2 3 1 2 2 5 7 6 6 4 4 5 8 8 7 7 6 7 7 8 8 8 6 6 6 6 7 7 7 7 8 8 7 7 8 8 8 9 9 9 9
0 1 2 0 0 4 1 3 2 1 1 1 3 1 1 4 3 6 14 9 3 2 2 3 5 6 8 10 10 10 10 11 8 9 9 4 3 5 5 4 2 4 3 1 1 2 2 3 3 3 4 5 4 4 4 1 0 1 2 1 1 1 3 6 7 5 5 4 4 8 8 7 6 8 8 7 9 10 7 7 6 6 6 6 6 8 6 7 7 8 8 8 9 8 9 7 8
2 3 1 3 0 1 2 3 0 0 1 1 2 0 0 2 2 9 2 2 4 4 1 0 4 7 8 7 7 7 9 11 12 6 3 5 5 7 7 5 5 5 2 3 1 1 2 2 2 2 4 5 5 5 5 2 2 2 2 2 1 3 1 3 5 5 5 4 3 4 8 8 7 6 6 8 7 9 9 6 6 7 7 6 8 8 6 7 8 8 8 8 8 8 8 7 8
3 2 2 3 9 2 2 1 1 0 0 3 2 0 1 2 2 12 1 1 1 4 2 2 4 6 6 7 7 6 6 7 5 7 12 10 10 9 8 8 7 5 5 4 2 2 1 1 2 2 4 5 5 6 4 3 3 4 3 3 2 2 3 1 3 5 6 4 4 3 3 8 8 6 5 6 9 7 9 8 6 6 7 7 7 8 6 6 9 9 9 9 9 8 8 7 8
0 1 1 4 8 1 5 0 2 1 1 3 2 0 2 1 8 10 1 0 0 2 4 4 5 6 6 6 6 6 8 6 6 8 11 9 5 6 9 6 6 6 3 4 3 2 0 1 1 1 1 4 6 5 3 2 4 4 5 3 3 3 1 4 1 4 5 4 5 5 4 8 7 9 8 6 9 7 9 10 8 6 6 8 8 11 10 9 9 9 9 8 8 8 9 8 8
0 7 1 3 6 3 2 1 2 1 1 1 1 5 6 11 17 4 1 3 1 2 5 7 6 6 7 7 6 7 7 6 9 10 7 6 6 7 8 6 5 5 4 2 3 2 1 1 1 1 2 2 3 3 2 2 3 4 4 5 4 3 2 2 2 4 4 4 5 5 3 3 8 7 10 10 9 8 6 7 9 7 6 7 6 8 9 9 10 10 9 9 7 8 9 8 8
1 1 5 1 2 2 2 1 0 3 0 1 1 4 6 7 10 8 5 4 4 6 8 7 6 7 7 7 7 8 9 8 9 8 8 6 6 5 7 5 6 5 3 3 4 3 2 1 1 2 2 3 3 4 4 3 3 3 3 4 4 4 2 2 3 4 3 4 4 5 6 5 4 8 9 10 8 10 10 8 8 8 8 8 8 8 9 9 9 9 8 10 8 9 9 8 9
3 1 2 3 2 4 9 1 3 3 1 1 2 4 10 10 12 4 5 2 2 9 7 7 7 8 8 7 8 9 10 7 9 9 8 8 7 6 6 7 5 5 5 4 3 3 2 2 2 3 3 4 4 4 5 4 4 4 4 4 5 4 3 2 4 3 1 3 4 5 6 7 6 6 8 9 8 7 8 9 8 7 7 8 7 6 8 10 10 9 7 7 11 9 9 9 7
6 1 2 1 1 4 7 1 2 3 1 1 4 8 3 6 3 3 1 4 3 5 10 8 9 10 9 9 9 9 9 11 9 10 9 8 7 6 6 6 7 6 4 4 4 3 3 2 3 4 3 5 5 5 5 5 4 4 4 3 5 5 3 2 4 4 4 3 4 6 6 8 8 8 9 9 10 8 6 10 9 8 8 9 9 7 7 8 9 9 7 5 8 10 9 10 8
2 2 2 3 1 1 2 4 0 1 0 3 2 2 10 5 7 5 1 5 4 6 11 11 10 9 9 8 9 10 11 11 13 12 12 10 7 8 6 6 7 6 4 4 4 4 4 4 3 4 3 4 4 5 4 4 4 5 5 3 5 5 4 3 4 5 6 4 2 7 8 8 8 9 9 8 10 8 7 7 7 8 7 7 9 8 8 7 7 8 10 6 6 9 9 9 9
1 1 0 2 1 3 5 1 0 1 2 3 1 7 15 14 12 12 6 6 6 10 11 10 9 9 9 9 10 12 12 12 17 9 9 10 10 9 7 7 6 6 5 6 5 4 4 4 4 5 5 5 5 5 6 6 6 5 5 5 6 6 4 4 5 6 5 3 2 5 8 7 6 8 9 9 9 9 7 6 7 8 9 9 10 9 8 8 8 6 11 9 6 6 8 8 9
2 7 5 3 2 3 4 6 3 4 2 4 7 10 11 13 13 14 6 6 8 11 8 9 11 10 10 10 11 11 13 16 10 5 8 9 10 10 8 7 7 7 6 6 6 5 5 6 5 5 5 5 5 5 5 5 4 4 6 5 7 6 3 4 5 6 5 3 3 4 6 6 5 6 8 9 9 8 8 7 7 8 9 10 10 9 7 7 10 11 10 13 12 8 6 8 8
6 5 4 2 2 6 4 4 4 0 0 9 12 10 10 12 12 13 11 2 6 9 11 12 12 12 11 11 13 15 14 16 2 8 9 11 11 9 8 8 9 9 8 7 7 7 8 7 8 7 5 5 5 6 4 5 6 5 4 4 6 3 3 4 5 4 5 3 3 4 6 7 8 8 6 7 8 9 7 8 7 6 6 6 7 8 10 10 10 10 10 8 13 11 7 5 5
3 4 2 2 2 8 4 1 2 2 3 4 1 2 10 13 13 15 10 3 13 13 13 14 16 14 11 12 15 16 15 1 5 6 8 9 8 9 8 8 10 12 10 8 10 9 8 9 9 8 6 6 5 6 5 4 2 3 5 5 6 4 3 3 4 3 5 4 4 4 5 7 8 8 7 9 10 8 8 6 7 7 7 6 7 9 10 11 11 10 10 9 2 8 7 2 1
3 2 2 0 7 5 10 2 2 2 2 10 7 10 13 10 12 15 14 15 11 10 13 17 15 14 11 12 15 15 7 10 6 9 8 9 9 9 8 10 11 11 11 11 10 10 9 9 7 8 6 6 5 5 4 4 3 4 4 5 5 5 4 3 3 3 5 6 4 3 5 6 8 8 5 8 9 9 7 7 7 7 7 9 10 8 9 9 9 11 10 11 8 3 4 2 1
4 3 3 7 3 1 6 1 3 1 3 3 3 10 12 8 12 17 19 13 9 9 13 15 13 14 16 18 14 11 12 11 12 12 12 9 9 9 8 11 12 12 11 11 11 11 8 8 8 8 8 6 6 5 5 6 7 7 8 7 5 4 5 5 5 4 6 7 6 4 4 4 6 9 7 7 6 7 8 10 7 7 8 8 11 11 9 9 9 8 8 8 11 10 3 2 3
2 5 4 2 3 5 6 5 3 1 1 2 5 9 11 9 12 10 6 2 6 16 11 12 15 14 17 12 8 12 13 11 12 10 9 11 12 12 13 11 11 13 12 11 11 12 7 10 9 9 8 7 5 6 8 8 9 9 7 8 7 9 7 5 5 4 3 4 6 5 4 4 5 9 8 8 8 8 8 8 9 8 8 7 7 9 10 10 9 8 9 10 9 12 6 3 2
3 6 10 8 6 5 3 3 5 8 5 2 3 7 5 5 5 11 9 6 7 6 5 14 16 14 11 13 18 10 9 9 12 13 14 14 12 9 9 11 13 11 12 10 9 8 8 8 9 9 7 7 7 7 9 8 7 10 9 9 8 6 7 7 8 11 8 7 6 2 4 4 5 7 8 7 7 6 8 9 9 8 8 8 7 8 9 8 8 9 9 9 8 6 9 5 4
1 4 7 9 4 1 1 1 2 3 3 1 2 1 11 1 3 5 5 4 12 9 7 14 12 12 9 11 12 9 10 9 8 7 8 12 11 9 10 13 12 13 10 9 9 8 9 9 10 10 9 7 7 8 9 6 7 10 12 11 12 12 12 5 2 4 5 4 4 4 4 4 4 6 8 7 7 6 8 10 10 8 8 8 8 8 8 9 9 10 7 6 8 7 8 8 8
3 1 3 4 4 5 3 3 5 5 2 5 1 2 6 13 6 7 5 8 11 10 15 17 14 12 11 10 10 9 8 9 9 10 10 10 11 13 15 14 14 14 11 11 11 9 12 12 12 11 7 7 7 8 8 7 8 9 7 7 8 9 10 10 6 5 4 5 5 5 5 4 4 4 7 7 5 6 9 9 9 9 9 8 8 8 10 8 7 5 5 6 6 7 8 10 9
3 1 4 5 5 4 4 4 3 0 4 10 1 0 1 8 4 3 2 7 7 13 15 16 14 12 7 7 8 7 6 6 7 8 10 12 12 12 11 13 12 12 11 12 11 9 10 10 10 9 7 6 7 9 9 7 6 7 7 7 7 3 6 7 6 4 6 4 7 4 5 5 5 5 5 6 7 6 7 9 10 9 9 9 8 7 7 7 9 9 7 6 7 5 4 8 9
1 6 7 7 7 6 4 4 4 2 2 11 5 5 3 17 3 3 4 1 7 11 13 16 15 11 7 7 5 5 4 3 5 7 8 10 10 10 10 9 11 11 9 8 9 9 9 9 10 11 9 7 7 8 7 6 6 5 6 7 9 9 8 6 4 6 5 4 6 6 5 5 5 5 4 4 6 6 7 7 8 10 9 8 6 7 7 7 6 7 6 6 6 7 2 5 6
9 4 8 5 8 4 3 6 2 2 3 9 6 12 7 10 3 8 7 8 9 10 8 10 11 9 7 5 6 5 4 3 5 5 6 8 7 9 9 12 12 11 9 10 9 10 9 10 12 12 9 7 8 8 8 8 6 5 6 7 11 13 12 10 8 5 6 4 6 6 6 5 5 5 4 4 5 6 7 6 6 7 6 5 6 7 6 6 5 5 5 6 6 7 5 5 6
5 2 3 4 2 6 3 4 4 1 9 2 2 7 5 11 4 7 7 5 5 8 9 10 11 11 7 5 4 4 4 4 4 5 5 7 7 8 10 12 13 14 12 12 10 10 10 10 11 14 10 9 9 8 8 7 7 7 6 6 9 12 15 12 14 14 8 10 8 8 5 5 5 4 4 5 5 5 6 6 6 7 6 6 6 5 5 6 6 6 5 5 6 5 6 5 5
3 6 7 4 4 5 3 2 2 5 9 1 3 1 5 16 12 6 7 10 10 9 11 12 10 10 7 4 5 3 3 4 5 6 6 7 10 12 13 12 12 14 13 13 12 11 12 11 13 14 12 9 9 9 9 8 8 7 7 8 7 10 12 14 14 13 9 9 8 8 8 7 5 5 4 5 5 6 5 7 6 6 6 5 6 6 6 6 6 6 6 6 6 6 5 5 6
5 8 7 5 0 1 4 5 2 7 8 4 0 1 9 2 8 15 21 21 16 10 12 12 11 13 11 3 2 3 4 6 6 7 8 8 10 10 11 12 13 12 14 13 12 12 11 10 13 14 13 10 9 9 9 9 9 8 7 7 8 9 10 11 9 9 9 7 7 9 9 8 8 7 7 6 5 5 4 5 6 6 6 6 7 7 7 6 6 6 6 7 7 5 5 7 7
10 3 9 9 8 7 3 5 6 8 5 3 5 1 8 4 4 1 10 10 6 7 10 9 9 11 9 5 5 5 6 7 7 8 9 9 9 10 10 11 11 11 13 12 11 12 11 11 13 14 13 10 10 10 10 11 9 9 7 6 7 6 6 6 6 5 8 9 6 6 8 7 7 6 6 5 5 6 6 6 6 7 7 7 7 7 6 7 6 7 6 7 6 5 6 7 6
2 2 5 4 9 6 6 4 3 1 4 5 2 7 4 6 3 6 5 7 8 6 9 7 12 12 4 6 7 7 8 8 7 8 8 9 9 9 9 10 11 11 13 11 13 12 12 12 13 15 12 10 9 11 10 10 9 7 8 9 7 8 4 4 4 4 4 4 5 9 9 8 7 7 5 6 5 6 6 7 6 7 7 7 6 7 7 6 6 7 6 6 7 3 6 8 6
4 6 7 6 2 7 5 2 1 1 2 12 3 10 7 9 10 13 16 9 9 5 5 5 12 13 4 9 9 5 7 7 7 9 9 8 7 8 9 11 11 11 12 13 14 13 13 12 12 12 10 9 10 11 10 10 7 7 7 7 7 8 8 9 8 9 8 7 6 5 8 8 8 6 7 5 7 6 6 6 7 7 7 6 7 7 7 7 6 7 7 7 7 5 6 7 5
9 4 8 2 2 4 5 6 2 3 4 9 3 8 9 3 16 1 1 5 13 8 10 10 10 4 5 9 9 6 7 8 8 7 6 8 9 10 10 9 11 12 13 13 15 13 11 11 12 12 10 10 10 10 10 9 10 9 7 8 9 8 8 8 6 9 10 10 8 7 7 8 8 7 7 6 6 8 6 7 7 7 6 6 7 6 7 7 7 7 7 6 6 6 7 6 5
5 3 4 7 4 2 2 3 4 2 5 7 6 3 10 9 14 2 3 6 9 10 13 12 11 9 10 10 9 7 6 5 7 8 8 8 9 10 10 10 10 10 11 11 11 10 10 9 10 10 11 12 11 9 8 7 7 7 8 10 11 9 8 7 7 7 9 11 11 10 10 8 8 8 8 8 8 7 7 6 7 7 7 7 6 6 6 6 7 8 6 7 5 5 6 7 5
1 2 3 1 2 2 5 7 3 5 5 1 10 2 16 7 9 7 10 11 11 10 9 9 11 10 8 8 7 7 7 7 7 8 8 9 9 10 11 11 11 12 11 10 11 9 12 9 10 9 9 9 10 9 10 9 9 9 8 7 7 6 6 8 9 10 9 10 11 11 10 9 9 7 8 8 7 7 7 8 6 7 7 6 7 6 6 7 6 7 6 6 5 6 7 7 6
2 2 4 1 0 2 5 1 3 4 4 3 2 12 16 9 9 9 12 14 13 11 10 10 10 9 7 6 7 7 7 7 7 7 8 9 9 9 9 8 8 7 8 9 10 12 11 10 11 11 10 10 12 11 10 10 9 9 9 9 10 9 9 7 8 9 10 10 9 9 9 8 8 8 8 8 8 8 8 8 8 7 8 7 7 7 5 7 7 7 5 6 6 6 8 6 6
16 16 14 16 11 5 4 7 2 2 3 6 3 16 19 3 3 8 9 10 9 10 10 8 6 5 7 7 8 8 7 8 7 7 7 8 8 8 8 7 5 7 9 11 10 10 11 10 11 11 11 11 12 11 11 10 9 9 11 11 11 9 9 8 10 9 9 8 9 8 8 8 9 8 8 9 9 8 8 8 8 8 7 7 7 7 7 7 8 8 7 4 6 7 7 7 6
Wind_Direction
318 314 303 202 46 102 52 3 153 339 56 28 359 36 170 353 269 7 226 356 207 235 207 71 167 130 203 212 184 147 193 112 218 144 211 238 303 303 314 280 261 209 170 179 179 176 189 229 152 122 122 109 108 109 114 114 106 103 100 99 98 99 98 98 99 97 96 93 89 85 77 69 65 62 59 58 59 60 61 62 63 62 60 60 62 64 67 70 73 75 77 79 81 82 82 80 79
290 304 39 29 28 45 332 161 97 352 45 86 236 82 248 280 39 219 185 207 200 147 152 127 107 96 71 78 102 150 80 312 169 9 279 226 295 318 358 286 251 169 170 167 166 165 183 172 152 135 127 120 119 121 117 115 107 103 100 98 97 98 100 99 100 102 98 93 87 84 79 73 66 61 59 59 59 59 60 61 63 64 64 64 64 66 68 71 72 73 76 80 83 83 82 80 80
22 9 339 36 40 73 95 30 296 40 84 58 271 211 347 156 210 224 224 215 174 143 37 89 141 73 34 116 9 67 190 359 258 248 212 327 148 351 340 285 243 169 168 154 159 146 186 167 148 143 131 128 128 127 122 116 107 102 101 103 103 102 100 100 101 101 101 97 92 88 84 78 71 65 62 61 60 61 60 60 62 64 65 66 68 69 71 72 73 74 79 82 84 82 80 79 77
86 36 126 56 54 28 51 31 84 120 111 194 316 267 200 172 232 216 250 232 152 34 350 26 114 220 131 74 193 172 37 45 227 187 76 77 70 331 307 297 255 179 168 144 170 160 171 152 157 145 132 129 129 125 123 115 111 111 108 108 107 104 100 100 99 100 100 99 97 91 86 82 77 72 67 64 62 63 63 63 63 65 67 67 69 71 72 73 74 77 82 84 83 83 83 83 82
62 3 63 99 109 10 100 101 128 98 60 199 158 262 254 215 166 203 253 284 265 216 351 272 100 8 207 99 147 131 189 37 304 235 262 265 278 280 297 280 227 181 171 153 160 177 152 146 107 144 135 132 129 123 124 124 121 113 107 111 111 106 101 102 103 104 104 103 97 92 88 84 80 75 70 68 67 67 66 66 65 65 67 70 71 73 75 76 76 80 82 83 83 81 82 81 82
59 44 10 75 67 164 73 65 59 120 220 152 124 215 213 211 160 191 216 305 268 205 197 161 174 185 66 295 188 91 200 107 189 252 166 259 294 308 271 263 194 178 170 162 147 154 192 153 34 156 144 137 130 128 131 132 124 118 118 115 114 112 108 108 109 108 109 107 99 93 88 84 80 76 73 71 71 70 70 69 69 68 68 72 75 75 75 76 79 80 82 83 83 83 81 80 75
300 41 3 48 35 46 151 124 176 179 188 162 237 221 194 197 222 130 273 117 258 106 169 241 88 112 80 293 11 237 193 111 85 208 184 300 313 311 279 235 161 179 168 171 161 151 134 188 200 139 140 146 138 136 138 133 130 125 122 120 123 122 115 114 113 112 110 108 100 94 90 85 80 78 76 74 73 73 72 71 72 72 72 73 75 77 79 79 81 81 77 78 77 77 75 75 76
70 120 333 96 4 41 45 148 172 180 11 182 230 261 234 201 172 143 194 141 232 208 105 193 14 123 248 54 158 322 336 222 203 250 252 278 293 299 228 190 166 165 171 172 159 135 158 153 207 168 171 151 143 142 143 138 137 131 124 125 127 126 124 119 117 116 116 112 105 101 97 92 86 82 79 78 77 77 76 75 74 75 75 76 77 77 79 82 83 81 78 74 74 73 73 76 79
10 84 264 71 57 27 66 77 261 239 284 281 279 225 319 187 162 123 182 253 310 209 205 202 292 120 223 60 186 279 284 238 280 279 274 272 294 268 205 162 177 161 170 164 170 140 142 127 172 255 191 159 153 150 148 148 144 141 133 131 135 133 127 122 117 119 117 113 108 106 104 99 95 91 87 83 82 81 79 77 77 77 78 78 79 80 79 79 81 81 81 79 77 77 78 78 76
47 41 194 106 136 45 13 282 104 183 239 234 244 230 182 176 174 37 170 138 228 104 205 39 206 280 116 198 320 290 152 220 277 193 265 352 319 179 191 167 178 154 164 174 168 183 124 147 209 210 184 157 159 156 151 148 152 147 145 138 138 132 128 125 123 124 123 119 114 111 105 100 96 93 90 86 84 83 82 80 80 79 80 80 81 81 81 83 84 85 85 82 77 75 73 70 68
12 22 139 78 36 110 159 219 268 316 256 308 278 241 219 161 137 136 162 197 353 163 279 131 215 154 129 255 205 296 311 315 148 172 332 348 58 123 155 157 167 163 148 159 167 197 135 161 180 207 107 340 193 153 148 146 157 153 148 143 138 132 130 128 126 128 126 123 117 112 109 104 99 93 89 87 86 85 85 84 83 82 81 81 81 82 84 85 85 85 83 79 76 73 70 68 65
42 23 13 100 142 154 215 159 249 282 301 343 153 287 193 154 109 120 181 138 204 288 177 169 309 146 101 331 290 199 323 96 140 170 298 148 77 70 105 109 156 158 131 153 176 182 188 143 136 129 84 349 162 122 149 151 154 148 146 143 135 131 132 130 129 131 130 126 120 115 114 110 103 97 92 89 88 87 87 86 85 85 83 82 82 81 82 84 85 83 80 78 75 73 71 68 67
111 88 87 82 164 159 155 109 215 306 346 273 171 142 138 126 180 190 169 103 93 112 280 202 136 79 264 197 240 307 141 159 202 233 299 124 98 80 74 81 77 71 65 114 149 179 186 158 143 166 141 247 275 116 134 133 148 149 150 145 139 126 128 128 129 132 132 128 124 124 120 110 103 98 95 91 88 87 86 86 86 86 85 84 84 84 82 81 80 79 77 75 74 72 71 70 69
116 177 123 136 38 121 137 164 346 164 254 244 268 108 179 147 238 179 131 138 205 168 240 191 140 160 260 359 310 316 231 163 239 147 223 119 106 84 85 81 80 65 49 86 73 62 63 69 88 127 163 195 151 129 97 72 166 146 143 142 138 133 131 130 130 131 132 125 118 123 119 109 102 98 95 94 90 86 87 87 87 86 85 85 85 85 84 82 80 79 78 77 75 74 73 72 70
107 175 84 116 59 111 234 132 198 164 226 185 169 138 170 270 103 161 164 155 245 213 311 222 201 125 236 154 282 214 202 179 164 225 171 109 97 90 80 73 79 64 48 59 54 49 46 10 83 65 66 131 163 196 144 77 68 125 140 139 143 141 136 134 135 132 125 117 116 121 117 109 102 96 93 93 90 85 80 82 85 87 87 87 86 87 87 87 85 84 82 81 80 78 75 73 71
135 94 80 104 169 142 220 132 1 103 250 176 177 241 108 357 201 136 243 170 163 310 349 195 53 208 117 181 207 267 261 278 197 198 142 113 102 89 93 84 84 73 61 54 57 33 22 39 30 58 34 42 39 190 144 108 38 106 135 134 148 143 144 141 135 128 128 121 120 121 117 112 103 99 96 93 96 90 82 83 83 86 89 89 88 89 89 89 87 86 84 82 80 77 73 70 69
66 83 65 50 177 174 214 152 148 192 239 243 282 193 161 207 197 252 82 120 124 191 352 229 206 49 205 205 281 278 278 268 197 145 125 121 126 120 99 100 107 76 61 57 50 28 26 30 16 80 91 43 38 331 172 155 209 126 118 125 132 139 148 143 131 123 120 121 124 125 121 117 110 104 103 100 96 94 92 88 88 89 91 91 92 93 92 92 90 88 84 80 76 71 67 65 62
54 73 114 138 202 154 200 177 186 207 125 212 185 201 117 179 165 184 113 46 48 347 248 298 293 249 224 248 277 264 271 212 194 147 139 138 148 151 153 158 141 134 77 76 55 31 28 29 11 35 16 43 73 349 252 174 171 186 144 142 139 136 131 131 135 135 135 136 133 134 128 128 122 117 113 111 98 102 94 93 93 93 93 91 93 95 95 95 94 91 87 83 80 76 69 65 60
82 127 88 206 177 236 167 191 187 117 238 160 173 122 148 206 146 199 114 262 12 195 265 4 302 288 282 274 319 168 165 194 168 168 160 164 163 167 171 159 151 140 130 87 75 31 17 8 350 48 45 13 17 10 304 160 166 178 154 139 135 137 140 138 141 134 146 144 146 143 140 139 130 126 128 120 104 98 97 100 95 91 87 90 93 93 94 94 92 89 86 84 81 77 72 70 66
193 116 177 254 205 228 210 178 185 228 138 128 142 183 149 206 149 139 210 164 64 211 217 273 260 250 229 240 8 162 171 183 178 181 177 180 184 175 167 175 166 168 121 137 92 344 39 29 341 68 44 19 50 321 306 176 168 173 168 151 147 150 155 158 138 143 150 149 149 146 145 135 132 126 110 118 116 105 98 93 96 93 87 83 87 84 81 85 87 85 84 83 76 66 72 72 71
216 71 161 222 175 105 223 186 226 200 145 151 133 112 124 233 206 163 169 124 252 254 230 192 212 227 224 204 177 172 185 193 205 204 188 191 198 221 175 171 152 149 181 239 190 144 80 23 330 43 23 59 23 340 281 12 208 194 178 158 147 155 161 164 157 152 162 157 151 147 149 142 135 132 135 139 122 118 117 114 107 101 100 94 97 91 90 84 82 84 82 74 74 73 70 65 67
96 56 202 164 143 53 250 202 182 157 242 110 115 132 212 93 87 127 152 187 232 210 235 212 226 216 183 190 188 180 192 198 206 207 203 192 191 197 185 162 238 237 247 217 142 185 172 170 72 15 13 31 338 289 280 307 312 215 192 162 153 148 160 163 156 156 148 169 150 147 148 146 141 140 142 137 124 127 122 119 112 111 103 101 102 99 96 94 91 91 86 83 80 78 74 71 65
91 331 256 203 215 116 297 222 203 139 125 123 137 205 86 138 207 185 185 215 230 219 200 222 238 219 222 125 146 181 194 203 206 208 194 196 199 201 205 204 176 186 215 184 347 354 345 2 19 12 13 340 296 251 258 266 242 228 190 188 157 158 150 162 160 154 160 163 153 148 151 152 148 152 147 143 124 126 119 125 122 118 113 107 105 105 95 89 92 91 88 88 88 85 80 75 73
104 160 25 237 179 315 204 268 140 129 125 179 195 53 146 126 234 120 218 242 232 216 240 241 246 249 186 156 184 188 194 199 207 206 202 202 194 198 189 186 208 321 271 321 27 248 350 341 340 351 5 328 288 279 240 216 212 203 196 178 158 161 153 161 163 171 163 165 155 158 156 153 156 155 156 143 129 127 124 120 120 119 112 109 109 104 104 97 92 90 92 90 89 85 84 81 78
83 92 215 236 108 261 316 137 100 91 71 20 94 124 234 189 202 38 248 244 243 253 58 247 136 146 166 180 189 197 197 206 212 209 225 237 206 181 202 212 221 115 214 298 333 348 339 327 331 329 347 315 295 295 269 222 166 136 104 148 190 166 165 163 164 160 160 172 159 160 161 156 166 160 168 142 141 131 124 128 129 119 119 118 116 103 105 107 99 96 90 90 85 86 84 80 78
119 154 130 65 119 327 188 69 45 42 51 123 107 288 292 257 296 255 246 245 245 150 78 80 123 146 183 198 197 192 195 202 200 205 209 189 180 184 216 201 171 195 198 217 246 307 303 317 306 315 324 308 295 279 244 217 24 83 100 82 86 41 195 156 151 155 152 174 183 163 167 170 168 167 165 142 141 134 131 130 128 116 112 112 110 106 104 103 104 98 95 90 86 81 79 77 80
122 137 136 128 304 313 28 158 332 259 187 186 183 288 262 322 94 280 21 333 115 101 101 7 163 192 203 205 205 211 198 202 199 180 144 199 205 201 203 197 193 199 158 218 221 240 275 292 314 281 289 280 278 261 229 167 134 112 118 114 95 110 20 132 145 144 140 155 220 185 167 170 157 162 156 151 134 136 133 126 118 117 114 107 108 103 102 104 101 95 98 98 93 89 85 80 84
51 139 135 42 345 75 355 37 340 303 227 197 155 195 285 314 86 245 197 344 350 169 214 227 207 222 218 220 214 214 220 223 202 181 201 192 205 191 200 192 196 192 188 210 221 238 279 342 303 276 273 262 242 241 223 153 135 125 131 108 80 76 107 16 147 149 145 147 145 148 195 160 155 148 134 135 123 129 128 124 113 108 114 108 103 105 100 100 98 95 91 90 93 92 90 81 79
229 191 173 310 2 27 359 293 315 354 263 153 155 14 277 152 227 243 327 285 56 183 226 246 238 241 241 240 236 227 221 217 204 213 217 212 191 186 206 198 183 185 205 194 210 213 176 296 304 271 232 234 220 212 189 149 130 130 129 117 110 80 67 116 313 142 144 138 125 135 190 153 150 141 134 108 116 126 130 128 126 118 123 120 115 109 106 102 99 100 96 95 92 93 91 84 76
119 36 83 1 4 341 345 302 350 124 267 79 339 274 248 236 239 241 353 123 61 270 260 240 245 249 247 244 241 249 241 229 222 222 218 211 197 192 205 201 196 185 173 198 181 197 160 219 222 184 116 63 77 67 79 109 114 116 119 108 105 87 65 113 129 85 118 126 115 109 62 159 141 134 135 134 129 129 114 112 121 118 116 112 110 114 108 108 106 105 107 103 95 92 92 88 83
136 272 65 78 13 281 301 89 320 158 306 325 53 237 267 282 272 273 306 196 171 242 245 245 246 251 247 244 248 243 246 225 235 230 227 218 213 204 208 202 195 193 161 184 185 199 169 186 187 126 110 96 76 76 65 66 52 104 122 116 100 81 84 107 94 80 105 107 94 99 94 43 94 130 131 136 136 134 131 129 122 124 123 117 112 114 114 111 110 109 120 108 98 89 87 82 82
24 55 300 324 137 277 297 269 174 173 349 51 125 274 260 264 268 298 315 158 175 238 258 258 253 248 247 247 246 246 246 239 238 237 220 216 206 204 204 205 193 187 186 173 174 176 169 150 149 117 109 95 88 81 89 71 61 70 102 106 102 89 78 71 77 67 70 112 116 106 106 108 89 92 110 120 112 123 126 121 119 117 124 120 113 114 116 115 111 109 108 112 111 97 96 86 81
357 62 258 251 56 266 333 29 280 326 91 345 184 246 346 300 283 320 352 153 168 247 268 264 256 253 249 243 241 250 258 251 244 226 214 206 204 205 204 203 194 189 176 168 170 174 162 133 121 107 99 106 109 103 83 79 66 64 58 61 92 93 87 70 69 71 53 38 108 109 118 116 111 106 109 108 105 98 107 120 120 119 121 120 121 120 112 119 124 116 98 72 96 113 103 100 88
309 13 191 204 189 269 266 314 168 341 101 210 271 230 247 252 277 273 319 164 160 230 256 258 252 250 244 249 246 246 243 243 241 223 206 194 190 200 202 198 194 179 165 171 170 189 167 147 125 105 101 98 111 110 94 91 82 82 79 67 69 75 74 65 65 66 67 35 26 113 118 112 121 118 115 114 105 105 109 111 99 111 117 112 111 108 105 108 109 112 105 87 94 111 111 108 100
202 135 8 293 297 214 254 310 237 107 17 203 305 251 266 269 276 280 248 187 186 231 237 252 259 253 250 239 246 244 244 239 241 219 194 186 189 195 193 189 189 172 181 184 175 165 142 140 126 119 120 123 115 104 100 92 91 87 81 71 74 70 53 57 61 65 62 61 55 101 105 104 110 112 115 116 112 118 116 106 108 110 118 118 116 117 116 114 105 92 107 99 58 69 110 106 110
169 168 170 153 174 232 210 236 277 183 192 236 227 235 254 261 271 278 270 178 203 244 263 271 261 253 248 243 244 245 242 245 240 182 186 183 190 184 184 179 183 169 169 177 168 159 153 150 137 135 135 133 117 118 121 108 99 99 101 91 78 68 56 69 53 70 65 70 71 89 95 98 99 107 115 115 114 123 123 120 112 119 124 127 125 121 117 119 122 112 106 114 109 93 83 106 114
100 90 107 171 194 280 275 264 261 235 331 235 236 241 252 268 267 268 271 138 245 258 260 257 255 249 239 240 241 243 241 245 170 194 180 188 190 185 179 173 182 175 182 174 169 171 174 161 163 162 152 144 146 144 145 141 131 110 80 92 106 77 78 79 71 61 73 51 62 81 97 106 111 110 109 119 118 118 112 120 120 119 122 116 115 116 123 122 122 117 116 114 124 119 103 113 97
129 114 132 262 165 257 234 188 24 297 175 295 278 254 261 259 270 267 270 198 251 238 246 252 254 248 243 238 244 241 243 305 164 187 200 186 184 182 176 178 181 180 193 182 185 181 177 172 174 160 151 158 155 155 150 139 119 151 144 144 123 104 91 92 97 76 69 49 27 78 109 113 113 114 125 122 112 117 122 123 125 127 124 109 105 118 125 128 129 127 130 110 57 117 120 131 117
66 168 151 9 265 249 284 302 327 285 123 262 302 280 262 259 257 266 261 250 247 231 225 242 245 254 245 238 241 246 234 233 191 215 192 193 183 182 183 187 190 186 187 191 187 181 180 178 177 162 155 156 153 145 141 133 109 95 119 131 126 106 57 48 68 86 89 78 49 31 86 108 121 115 115 122 124 132 126 124 126 125 125 128 125 128 133 137 145 143 151 135 127 41 92 36 24
125 103 121 221 233 29 302 296 7 109 184 272 309 294 274 250 252 252 252 244 260 249 242 246 243 251 250 242 235 239 235 229 219 203 200 185 186 188 188 192 190 185 185 191 191 188 182 185 173 163 159 156 149 131 115 95 92 81 78 91 89 76 123 102 87 73 78 81 63 38 29 85 120 116 104 110 117 124 133 134 126 133 138 145 141 141 148 146 152 145 137 135 129 134 143 91 15
271 180 183 206 195 233 187 256 301 257 5 55 311 275 277 218 238 259 276 317 246 259 258 256 253 240 248 265 273 230 234 219 223 207 194 186 190 198 195 190 181 189 191 192 191 188 179 181 171 164 160 157 131 134 127 127 114 97 95 92 94 94 76 94 106 75 72 94 94 41 50 36 76 95 103 106 123 125 130 129 135 140 143 148 148 143 152 157 155 150 149 150 161 143 145 132 61
295 230 198 211 209 222 291 352 13 1 334 355 51 323 300 309 250 249 276 323 291 261 249 254 253 252 248 251 250 246 235 221 216 208 198 191 194 188 195 192 192 192 194 193 187 175 172 174 168 164 157 149 144 141 143 150 148 136 136 133 129 121 131 153 160 152 160 150 131 146 79 53 91 94 92 107 113 122 129 130 133 140 144 145 150 146 133 133 149 155 169 156 139 166 133 131 118
64 273 203 220 192 156 173 293 56 302 245 301 35 298 287 255 231 253 267 272 265 281 266 263 261 260 251 244 253 240 227 229 230 217 189 187 192 187 193 196 192 193 191 183 181 173 174 171 173 165 164 153 147 147 155 154 151 157 160 163 160 161 156 169 68 120 125 111 125 116 101 85 84 109 101 104 110 113 126 126 130 131 132 132 133 139 145 154 154 158 158 164 149 135 144 128 144
240 252 138 137 147 186 211 155 180 238 274 285 93 128 287 290 237 239 256 257 268 297 281 273 263 257 250 245 249 244 229 222 212 210 195 195 187 189 193 194 192 195 182 183 186 177 179 177 171 168 157 153 157 158 164 177 160 166 158 152 157 157 159 152 147 135 117 129 121 117 114 104 89 84 110 109 115 129 129 120 125 136 139 137 148 154 148 146 138 131 147 132 141 155 156 142 152
221 195 134 141 159 168 126 121 158 282 23 289 46 303 233 260 269 313 258 248 265 261 261 268 270 266 263 260 255 255 247 230 207 199 196 191 191 194 192 189 187 182 176 184 184 174 170 163 161 159 151 153 159 165 165 171 176 163 158 147 129 86 121 128 123 121 128 142 116 115 113 114 100 86 87 113 122 131 134 133 136 140 141 143 147 134 134 145 148 142 143 150 157 149 158 138 141
223 127 90 83 80 68 106 102 102 314 47 270 161 193 174 277 184 185 347 239 259 250 249 256 262 270 275 270 282 294 295 240 213 207 194 196 194 192 190 178 178 180 174 172 177 167 163 161 161 162 163 159 160 167 166 161 161 150 141 146 137 136 132 123 120 130 134 147 123 130 131 123 121 117 111 117 120 124 125 129 137 138 133 130 134 128 126 128 129 130 124 125 120 113 86 128 138
131 109 78 37 44 44 32 65 82 44 268 260 189 200 160 278 188 188 166 208 197 229 264 276 276 279 273 267 270 288 285 234 207 196 191 192 186 178 173 180 177 174 169 170 170 170 163 164 167 171 166 156 164 167 166 163 162 164 150 153 153 149 153 145 131 133 135 137 151 147 147 134 128 123 128 118 109 118 114 108 120 113 109 115 120 129 136 126 118 109 107 105 101 116 128 108 96
122 101 126 75 356 10 35 340 38 142 268 255 305 207 198 217 289 273 245 281 241 213 225 251 268 269 276 295 293 288 258 216 202 177 176 169 164 176 179 181 178 177 175 175 171 168 167 167 170 176 169 165 166 165 167 166 165 169 157 155 156 159 157 160 161 162 169 162 164 153 142 125 124 118 114 121 117 103 111 108 105 109 112 120 115 113 110 115 114 115 113 111 102 93 98 99 97
82 95 89 118 244 34 296 22 263 197 229 176 338 147 314 241 244 257 277 263 257 210 225 237 251 272 268 253 281 280 244 204 197 192 179 184 184 181 186 182 174 179 180 176 177 173 173 172 176 177 176 168 171 168 171 169 170 170 163 164 160 165 171 169 169 167 160 160 161 148 152 143 131 134 151 133 120 117 122 122 124 124 117 105 110 107 107 111 114 109 106 100 100 104 110 115 111
135 156 147 103 170 219 266 274 266 309 292 274 284 147 250 307 271 226 244 246 236 231 230 239 242 252 266 250 272 268 228 211 210 202 198 196 192 190 187 180 180 180 182 180 177 176 176 174 178 181 179 172 169 171 173 171 177 174 166 166 165 168 175 173 172 168 163 158 170 160 156 154 153 154 147 144 128 119 103 96 105 95 95 103 103 102 101 98 102 107 107 102 99 99 101 99 98
202 101 158 182 144 157 206 197 223 240 235 264 272 60 233 120 242 237 232 255 291 248 248 242 249 260 266 276 252 255 249 231 216 210 208 202 199 191 187 184 181 179 181 180 179 182 177 178 180 182 178 174 170 172 173 178 177 171 170 166 162 174 175 173 164 179 156 154 164 161 132 130 141 139 141 123 124 110 107 108 104 105 108 107 109 106 102 103 106 104 97 99 94 100 102 103 98
202 159 72 99 222 133 234 211 167 289 336 330 201 213 192 193 266 284 239 272 272 267 262 265 270 259 251 277 250 240 235 231 215 220 217 213 202 193 189 188 184 180 182 183 185 183 183 182 182 186 179 169 171 174 180 179 177 167 169 170 170 172 146 121 98 124 125 113 154 154 138 132 121 120 113 122 113 118 120 115 109 107 113 110 107 109 110 110 113 106 102 100 97 85 105 97 104
207 109 203 213 145 112 83 47 63 62 50 259 133 281 276 300 270 236 248 242 261 281 284 271 250 258 328 277 275 230 230 227 217 219 216 204 195 204 197 189 185 182 184 187 188 187 185 177 179 178 169 167 172 179 178 179 168 155 164 170 166 166 160 167 164 159 145 130 126 119 129 121 116 123 126 124 123 120 121 124 119 116 110 109 106 106 110 112 118 109 110 108 105 115 104 106 112
97 186 231 148 127 111 138 220 360 73 209 270 97 249 291 52 285 8 338 241 250 244 253 243 249 287 276 261 268 261 243 229 224 222 215 200 199 199 199 196 191 187 185 185 191 188 186 182 179 175 168 167 177 176 176 174 169 168 163 173 175 176 172 167 158 160 146 138 133 125 124 132 140 137 135 133 129 128 126 129 120 116 113 111 111 116 120 126 122 104 107 103 117 129 112 106 105
145 195 202 124 224 225 291 90 258 249 253 275 297 270 259 184 254 151 251 207 246 237 236 240 257 254 244 256 264 272 260 253 226 215 206 198 197 200 198 196 192 188 185 186 184 181 183 180 178 176 173 178 173 172 167 169 169 170 175 178 176 174 167 158 146 147 142 144 145 145 146 137 126 137 139 139 138 135 133 127 125 121 121 118 117 123 132 128 120 111 112 117 130 133 117 112 114
44 72 120 114 99 160 136 196 177 126 264 39 288 42 276 171 226 181 209 204 213 215 224 228 232 242 237 230 244 251 257 238 228 213 207 201 197 198 196 192 189 186 183 180 176 175 185 176 174 174 172 170 168 170 170 172 174 170 171 170 168 156 155 154 159 157 155 156 152 148 144 147 149 140 139 136 137 138 136 132 131 126 123 125 128 133 137 124 114 112 124 124 139 133 117 118 122
151 134 201 162 3 249 109 14 138 177 180 187 280 301 266 251 189 175 202 202 207 190 204 224 212 212 221 228 223 238 239 237 224 211 201 197 194 191 197 199 188 178 176 171 176 181 179 175 178 174 168 170 174 176 174 179 171 176 167 167 163 159 157 152 147 167 159 152 147 149 149 135 132 144 140 140 143 143 142 138 136 137 136 140 141 140 140 125 116 120 124 127 136 133 121 125 130
177 180 193 184 145 159 153 250 46 113 135 240 168 256 275 248 205 183 204 219 202 202 183 228 257 215 204 213 236 233 246 242 227 209 190 191 188 187 189 187 180 177 176 176 179 176 178 179 180 176 177 179 175 177 181 175 175 172 175 175 177 164 152 152 156 159 157 148 148 149 142 141 147 145 148 147 148 146 145 143 137 139 141 143 146 143 141 130 127 129 133 143 143 138 131 139 146